Wind_Speed
68 62 47 50 51 51 53 52 51 54 59 62 60 48 48 55 52 50 53 54 49 49 51 51 46 44 42 42 39 40 43 42 40 33 33 33 33 35 38 40 41 40 35 34
70 59 68 66 61 59 56 47 51 54 58 65 67 55 53 52 58 56 54 53 52 49 47 51 52 49 47 48 47 43 44 43 41 41 42 38 37 37 37 37 37 41 44 42
78 59 76 77 70 63 63 63 63 61 66 62 64 55 49 57 54 60 58 55 55 55 54 53 52 54 54 52 51 50 51 51 50 48 45 43 42 40 41 43 46 46 44 43
87 67 74 80 76 79 75 73 75 76 73 61 65 55 44 53 59 57 58 57 60 62 62 60 56 55 54 57 58 59 59 57 56 56 53 48 47 49 50 51 51 52 51 50
79 77 78 80 70 89 79 84 82 86 87 78 64 61 49 50 54 58 61 60 58 61 66 67 64 62 60 58 57 58 57 56 58 59 57 56 55 55 57 58 57 56 58 60
88 87 95 83 82 89 88 86 87 90 98 96 67 81 48 60 64 64 66 67 67 66 64 64 65 67 66 66 65 65 66 64 65 65 64 61 61 63 63 63 63 63 64 66
99 101 97 100 101 95 94 100 100 100 101 114 91 98 83 66 69 74 76 73 69 71 71 72 70 67 69 68 67 68 69 70 71 70 70 69 70 70 70 72 73 73 73 71
113 118 114 116 109 105 106 110 116 112 112 104 99 112 99 91 76 74 82 85 79 76 76 78 76 76 76 77 76 76 73 74 78 79 77 78 78 79 80 81 83 79 78 76
132 130 124 121 123 124 117 123 113 109 110 118 116 116 110 101 100 107 104 95 93 88 86 82 86 84 81 85 89 89 87 85 84 84 87 88 88 87 86 88 90 90 84 79
146 145 142 137 133 136 135 121 113 112 117 116 117 117 112 103 105 116 110 105 101 84 94 99 98 92 90 94 95 99 100 98 94 93 95 96 93 94 95 96 95 93 92 88
131 132 129 121 115 113 113 111 115 122 116 110 117 116 120 113 115 110 108 108 107 103 101 93 104 99 102 102 102 103 108 110 107 105 104 102 102 100 100 102 97 99 95 95
116 115 111 109 115 115 112 111 110 112 111 115 113 117 120 119 117 118 113 117 114 109 112 111 111 110 108 111 115 111 111 110 111 109 107 106 103 103 100 103 100 101 98 96
101 100 102 109 108 106 112 111 109 111 93 90 101 110 114 113 117 114 112 110 109 108 109 107 109 110 112 111 105 108 110 112 110 105 105 101 98 93 98 96 97 98 101 105
99 101 102 100 100 110 103 100 94 106 112 112 113 101 100 114 119 114 114 112 113 115 114 113 111 109 103 98 93 99 99 99 95 87 84 82 78 76 72 73 78 88 89 87
101 100 102 102 102 102 100 107 111 112 97 106 109 120 123 131 129 127 124 122 121 120 118 113 108 103 96 90 80 79 81 83 79 79 74 72 71 69 74 72 73 74 68 70
92 95 100 100 102 105 105 100 103 105 112 119 114 103 108 113 118 119 118 111 108 105 100 93 88 85 84 85 81 76 75 74 73 74 71 81 77 73 64 60 57 55 51 51
84 90 94 92 98 104 103 100 105 108 114 118 114 109 106 106 105 102 100 98 93 93 91 91 89 85 84 85 86 84 79 78 76 75 75 75 85 81 74 56 47 38 36 41
77 80 81 82 90 93 92 98 103 109 113 115 114 112 109 108 106 107 110 107 105 101 97 97 95 92 89 87 86 85 86 84 80 75 76 76 77 66 65 60 58 59 41 40
73 72 71 71 76 79 83 89 93 96 100 107 110 110 109 108 106 108 113 111 107 104 99 94 89 86 83 83 84 84 86 87 83 78 68 71 70 67 62 66 65 66 54 64
70 69 68 69 70 67 71 79 83 86 84 91 91 91 91 90 89 90 100 92 88 86 83 83 81 79 78 77 76 79 81 82 83 79 69 70 67 65 67 70 72 80 73 69
68 68 67 69 70 66 68 72 76 78 79 80 81 81 81 79 79 79 87 84 79 77 76 74 74 74 74 74 73 73 71 76 76 75 73 72 71 64 77 76 74 82 87 86
62 63 65 66 67 65 69 68 72 73 73 73 73 75 74 72 73 73 75 74 72 68 66 65 66 70 74 71 68 69 73 77 71 77 77 80 82 74 84 82 82 84 86 85
57 59 61 63 65 63 63 65 67 66 67 69 68 69 67 66 67 66 68 64 62 60 58 59 61 66 66 67 68 65 66 74 70 79 76 86 88 82 88 84 89 92 95 98
54 56 59 60 59 60 61 62 63 62 63 63 61 59 56 55 57 60 65 65 58 53 56 58 57 61 61 63 64 65 66 67 72 79 77 83 93 91 95 94 96 97 102 105
54 54 53 51 53 56 59 60 58 56 54 54 54 49 50 48 52 54 56 55 53 51 56 56 55 54 54 54 57 59 61 62 67 74 79 85 88 96 100 101 103 104 106 106
46 44 44 46 48 50 53 50 47 45 48 47 46 46 41 44 45 45 47 47 47 48 52 53 51 49 50 50 53 56 56 59 62 68 76 84 90 92 101 103 108 109 107 106
Wind_Direction
272 270 280 274 269 274 275 267 266 264 261 262 255 245 247 256 261 260 259 259 258 255 256 256 246 251 257 255 254 251 247 248 251 248 247 253 259 262 268 268 271 275 273 267
267 281 267 272 276 278 285 280 274 264 263 260 260 250 253 248 259 259 258 257 257 256 254 251 241 243 253 259 261 255 255 258 257 257 259 257 256 255 260 265 270 268 265 267
273 271 268 269 278 282 283 286 280 276 266 261 261 256 258 257 252 259 254 253 253 252 255 257 253 247 251 252 255 260 262 265 266 265 266 265 265 263 262 263 263 265 268 274
273 271 271 262 272 274 275 278 276 283 278 267 265 254 255 258 260 257 262 257 254 251 253 254 252 250 247 248 250 254 257 261 264 266 267 267 264 263 263 263 265 269 271 269
277 271 278 273 277 265 276 275 276 277 286 277 267 270 242 254 260 260 258 257 252 252 253 253 255 254 253 254 254 257 259 261 264 266 266 264 264 262 263 265 267 268 266 269
273 269 276 273 266 265 271 268 272 275 282 273 284 279 246 257 246 256 258 260 257 253 253 254 254 257 258 255 255 260 261 262 264 265 265 265 263 263 263 263 264 264 265 267
268 269 269 267 271 269 270 274 274 274 274 287 280 276 283 264 254 252 254 254 259 263 259 254 254 256 258 259 259 260 261 264 264 264 268 267 265 264 266 267 269 268 265 266
264 266 270 269 268 269 267 271 270 272 276 278 270 275 281 278 263 254 253 250 253 258 259 260 259 259 261 259 261 263 259 260 264 265 264 267 268 268 269 269 270 272 269 266
265 265 267 265 266 270 267 266 271 267 268 270 272 274 273 269 269 275 267 260 250 250 254 257 263 263 262 266 263 267 268 263 260 262 262 263 266 266 268 270 269 268 269 266
267 268 270 266 265 264 262 262 261 260 263 266 270 271 267 265 267 273 272 271 268 259 252 254 254 263 266 269 270 271 272 269 265 266 265 263 263 263 262 265 267 268 268 270
266 265 265 263 263 257 257 255 256 259 258 261 264 266 267 267 267 262 263 265 267 266 267 255 268 267 267 268 270 267 269 268 267 264 264 264 265 264 260 261 264 263 264 263
260 264 261 261 258 255 256 260 258 256 256 256 259 255 260 261 259 263 263 265 265 261 260 258 259 260 262 264 266 265 264 265 264 264 265 266 264 263 260 260 259 260 261 263
256 256 258 259 258 254 263 257 258 260 256 264 260 259 261 261 261 264 263 262 263 266 265 263 262 262 258 260 261 261 262 263 265 266 264 263 262 261 259 255 255 256 257 259
255 254 254 254 252 252 253 255 251 255 258 257 258 260 250 257 268 269 271 270 268 268 268 269 269 269 270 266 261 258 260 260 260 259 263 262 258 256 254 253 253 253 250 252
255 254 254 252 252 252 249 249 255 258 259 253 255 251 252 259 261 261 262 266 268 269 267 269 268 267 265 262 257 255 254 251 255 253 254 255 252 251 250 246 242 242 243 246
256 255 254 253 252 251 250 249 249 251 251 259 263 264 262 259 259 260 261 262 263 263 265 266 264 263 263 263 263 259 255 252 251 250 247 245 251 249 247 246 244 241 240 241
255 255 255 254 253 253 253 252 250 250 251 256 260 261 262 265 267 270 270 269 268 267 265 265 264 263 260 259 258 259 255 251 250 251 252 247 244 248 244 237 213 224 228 245
256 255 256 255 254 255 255 253 252 252 253 255 257 259 262 263 264 265 265 267 268 267 266 265 263 261 260 258 256 254 255 252 250 250 251 246 244 243 238 221 218 223 223 239
257 259 259 258 258 256 254 254 254 255 255 256 257 259 261 262 263 264 264 264 264 264 264 264 263 262 259 258 256 252 252 253 251 251 242 243 243 239 217 218 221 230 228 222
259 261 263 263 262 260 258 257 256 257 257 258 259 259 260 261 260 260 263 263 262 262 261 262 261 261 259 256 254 250 247 247 248 245 240 236 227 219 215 224 225 228 232 227
259 260 260 260 260 260 259 258 259 260 258 259 260 261 262 261 261 259 262 263 263 262 261 259 258 256 254 251 249 246 244 244 244 238 228 219 216 217 220 225 227 228 230 237
259 260 261 261 261 260 259 259 258 260 261 260 260 261 262 262 261 259 258 260 261 260 257 254 252 251 248 245 244 243 239 241 241 232 222 214 216 219 226 222 225 231 233 236
259 259 259 260 260 260 258 259 260 261 262 262 260 260 260 261 262 262 262 258 255 254 255 251 247 246 245 243 240 239 237 236 235 228 220 217 218 220 224 228 230 232 234 238
258 257 256 259 262 265 265 263 263 263 263 265 264 264 263 259 257 253 252 252 248 244 242 245 243 243 243 242 238 238 236 236 233 231 225 221 224 222 226 227 231 233 236 239
258 259 262 263 264 263 262 262 263 266 268 268 268 265 262 258 254 251 252 253 251 245 239 238 239 239 240 239 236 235 235 235 236 233 229 228 228 224 228 232 234 234 239 242
262 264 266 265 263 263 264 266 267 267 265 263 263 263 259 256 253 249 247 246 244 240 239 235 235 235 235 235 235 235 235 237 235 234 234 235 233 233 231 233 236 238 240 242
Height
10589 10599 10609 10603 10602 10605 10610 10614 10619 10615 10611 10609 10616 10632 10636 10628 10633 10637 10636 10635 10640 10643 10642 10645 10644 10643 10643 10645 10649 10649 10650 10651 10656 10659 10660 10662 10663 10666 10668 10668 10669 10670 10671 10672
10577 10591 10582 10577 10584 10589 10594 10599 10605 10600 10597 10593 10594 10624 10619 10626 10620 10622 10624 10624 10626 10629 10628 10627 10633 10635 10636 10637 10638 10640 10640 10642 10645 10648 10648 10651 10653 10657 10660 10661 10661 10660 10660 10661
10558 10582 10563 10561 10565 10567 10576 10582 10581 10581 10574 10583 10586 10607 10616 10606 10613 10604 10612 10615 10614 10614 10615 10614 10619 10624 10625 10626 10626 10628 10629 10631 10634 10636 10639 10643 10644 10647 10649 10649 10648 10648 10651 10653
10530 10562 10549 10543 10553 10541 10552 10555 10552 10557 10556 10570 10569 10595 10604 10598 10596 10601 10595 10602 10602 10601 10602 10600 10602 10605 10610 10611 10614 10615 10616 10618 10620 10621 10627 10630 10633 10635 10636 10636 10637 10639 10640 10641
10522 10530 10521 10520 10543 10511 10538 10526 10529 10531 10531 10538 10561 10568 10603 10589 10588 10584 10579 10582 10586 10588 10588 10590 10589 10593 10597 10600 10602 10603 10604 10608 10607 10609 10612 10616 10620 10620 10619 10622 10624 10627 10627 10627
10491 10501 10495 10508 10509 10499 10510 10509 10509 10505 10510 10501 10553 10534 10584 10577 10572 10564 10565 10565 10569 10573 10574 10576 10577 10576 10579 10585 10587 10589 10590 10593 10593 10594 10596 10601 10603 10602 10604 10608 10610 10611 10613 10613
10463 10473 10476 10472 10478 10489 10487 10484 10481 10476 10479 10489 10509 10495 10540 10553 10555 10552 10551 10550 10551 10552 10555 10557 10558 10560 10560 10562 10567 10571 10573 10575 10574 10577 10578 10581 10584 10583 10586 10590 10591 10592 10597 10600
10432 10445 10457 10453 10452 10466 10460 10462 10455 10452 10457 10471 10465 10458 10511 10509 10517 10527 10533 10534 10532 10532 10536 10538 10540 10543 10542 10540 10541 10546 10552 10555 10554 10555 10560 10559 10560 10563 10565 10567 10571 10572 10577 10581
10395 10402 10422 10428 10431 10430 10446 10433 10448 10426 10430 10429 10437 10441 10459 10477 10483 10492 10499 10503 10510 10518 10516 10517 10518 10522 10521 10520 10519 10520 10525 10532 10534 10535 10536 10539 10541 10544 10546 10545 10548 10555 10560 10564
10358 10365 10371 10382 10396 10395 10398 10413 10411 10407 10404 10402 10402 10409 10419 10438 10444 10453 10461 10470 10479 10489 10495 10495 10496 10497 10498 10498 10496 10493 10495 10503 10508 10512 10512 10516 10520 10525 10527 10524 10528 10531 10540 10543
10318 10329 10336 10340 10348 10353 10362 10370 10372 10382 10378 10378 10382 10383 10386 10398 10401 10414 10425 10435 10446 10455 10460 10465 10468 10469 10471 10472 10472 10469 10465 10464 10473 10481 10487 10490 10495 10499 10503 10506 10511 10511 10518 10522
10283 10290 10304 10307 10315 10325 10325 10331 10337 10346 10352 10352 10357 10363 10359 10363 10370 10378 10388 10398 10405 10415 10424 10432 10437 10440 10444 10445 10445 10446 10441 10437 10436 10443 10453 10462 10467 10471 10477 10483 10490 10489 10496 10496
10261 10266 10273 10279 10288 10293 10294 10305 10311 10313 10318 10321 10320 10333 10335 10332 10338 10346 10353 10360 10367 10374 10380 10388 10397 10404 10410 10414 10415 10414 10414 10412 10411 10413 10418 10427 10433 10442 10450 10455 10463 10469 10471 10475
10233 10237 10244 10250 10260 10263 10273 10276 10285 10284 10290 10293 10300 10312 10307 10299 10308 10310 10317 10324 10328 10333 10339 10345 10354 10361 10367 10372 10380 10382 10382 10385 10385 10390 10392 10397 10405 10413 10421 10428 10437 10443 10447 10453
10200 10207 10211 10220 10226 10231 10242 10248 10248 10250 10258 10260 10271 10280 10290 10273 10278 10287 10293 10295 10297 10301 10308 10316 10325 10329 10334 10338 10344 10348 10354 10358 10361 10367 10370 10376 10382 10390 10396 10409 10412 10418 10428 10434
10169 10177 10179 10190 10194 10198 10206 10219 10228 10229 10231 10229 10229 10243 10246 10246 10250 10257 10264 10267 10271 10273 10276 10285 10291 10298 10302 10306 10311 10318 10325 10331 10338 10344 10349 10357 10360 10369 10377 10387 10395 10400 10408 10418
10143 10148 10151 10165 10162 10163 10175 10198 10197 10201 10204 10201 10202 10212 10213 10216 10215 10222 10227 10228 10235 10242 10248 10255 10261 10268 10277 10281 10287 10291 10299 10306 10312 10319 10324 10333 10340 10346 10358 10369 10376 10385 10394 10403
10116 10119 10125 10136 10135 10139 10156 10162 10166 10168 10171 10172 10174 10178 10183 10188 10196 10199 10192 10199 10205 10210 10218 10225 10230 10239 10247 10254 10260 10266 10270 10277 10284 10293 10301 10307 10316 10326 10335 10348 10359 10366 10375 10387
10092 10097 10105 10111 10113 10120 10130 10129 10131 10134 10142 10142 10148 10151 10155 10159 10170 10174 10159 10167 10178 10184 10188 10193 10199 10207 10216 10222 10227 10236 10243 10249 10258 10268 10280 10286 10296 10304 10315 10326 10339 10346 10359 10373
10076 10081 10086 10088 10089 10097 10103 10101 10105 10108 10118 10113 10118 10123 10129 10134 10141 10147 10128 10140 10146 10153 10160 10166 10172 10179 10186 10191 10199 10205 10214 10222 10232 10243 10256 10266 10276 10286 10296 10306 10317 10327 10336 10343
10058 10063 10067 10066 10067 10078 10080 10080 10080 10082 10086 10090 10095 10098 10103 10108 10108 10117 10106 10111 10120 10128 10135 10142 10147 10152 10157 10161 10170 10180 10189 10196 10204 10217 10231 10244 10255 10264 10276 10284 10295 10302 10313 10320
10042 10044 10046 10047 10048 10055 10053 10060 10059 10060 10063 10067 10073 10074 10077 10080 10081 10085 10087 10092 10096 10105 10112 10116 10124 10127 10127 10137 10148 10157 10167 10173 10184 10194 10205 10221 10230 10243 10254 10260 10270 10281 10289 10295
10025 10026 10027 10027 10027 10031 10036 10037 10039 10042 10044 10043 10048 10050 10055 10059 10060 10063 10063 10074 10079 10083 10088 10092 10099 10100 10107 10117 10127 10138 10146 10154 10164 10170 10186 10200 10209 10219 10229 10239 10245 10254 10262 10269
10008 10009 10009 10010 10014 10015 10016 10018 10019 10022 10024 10024 10028 10033 10036 10040 10040 10040 10037 10042 10053 10062 10066 10070 10077 10082 10089 10098 10109 10119 10128 10135 10144 10151 10164 10179 10189 10197 10206 10215 10223 10232 10235 10242
9991 9992 9996 9999 9999 9999 9996 9997 10002 10005 10009 10009 10009 10013 10014 10018 10018 10022 10026 10031 10037 10044 10048 10053 10060 10066 10073 10085 10093 10102 10112 10121 10128 10135 10145 10155 10166 10177 10184 10194 10201 10206 10212 10217
9977 9981 9984 9984 9984 9983 9979 9984 9989 9992 9990 9991 9993 9993 9999 10000 10002 10007 10011 10017 10021 10025 10032 10038 10047 10054 10061 10070 10079 10087 10095 10101 10110 10117 10125 10135 10145 10154 10162 10171 10177 10187 10194 10200